www.pogodaiklimat.ru

Погода и климат >> Архив погоды >> Индия >> Wardha


ПОГОДА в Wardha

  • Прогноз погоды в Wardha
  • Монитор погоды в Wardha
  • Климат города

АРХИВ ПОГОДЫ в Wardha

Время (UTC), дата Ветер
(напр.,м/с)
 
Видим.   Явления Облачность Т
(С)
Тd
(С)
f
(%)
Тe
(С)
Тes
(С)
Комфортность P
(гПа)
Po
(гПа)
Тmin
(С)
Tmax
(С)
R
(мм)
R24
(мм)
S
(см)
03 16.10 штиль 0 4000 м ясно +22.1 +18.1 78 +27 +33 душно 1016.9 1017.0 +17.6
06 16.10 штиль 0 4000 м ясно +32.0 +18.5 45 +37 +58 опасность
солнечного
удара
1014.6 1015.0
09 16.10 штиль 0 4000 м 1/0
[Ac trans]
+34.1 +14.2 30 +35 +49 очень
жарко
1011.0 1011.0
12 16.10 штиль 0 4000 м ясно +32.4 +16.6 39 +36 +36 очень
душно
1011.7 1012.0 +34.5
03 17.10 штиль 0 2000 м 4/0
[Ci ing]
+22.6 +18.5 78 +28 +33 душно 1016.1 1016.0 +18.4
06 17.10 штиль 0 4000 м 1/0
[Ci sp]
+32.0 +18.8 46 +37 +57 опасность
солнечного
удара
1014.2 1014.0
09 17.10 штиль 0 4000 м 3/0
[Ac trans]
+34.2 +15.4 32 +36 +48 душно 1009.4 1009.0
12 17.10 штиль 0 4000 м 4/0
[Ac trans Ci fib]
+32.4 +17.0 40 +36 +36 очень
душно
1009.1 1009.0 +34.9
03 18.10 штиль 0 2000 м 5/0
[Ci]
+24.1 +19.3 75 +29 +34 душно 1014.6 1015.0 +20.4
06 18.10 штиль 0 4000 м 3/0
[Ci sp]
+32.0 +16.9 40 +35 +54 опасность
солнечного
удара
1013.0 1013.0
09 18.10 штиль 0 4000 м 1/0
[Ac trans]
+34.2 +16.6 35 +37 +51 опасность
солнечного
удара
1010.4 1010.0
12 18.10 штиль 0 4000 м 1/0
[Ac trans]
+32.4 +14.9 35 +34 +35 очень
жарко
1010.3 1010.0 +35.4
03 19.10 штиль 0 2000 м 1/0
[Ac trans]
+23.8 +18.4 72 +28 +34 душно 1014.2 1014.0 +19.8
06 19.10 штиль 0 4000 м 1/0
[Ac trans]
+33.2 +18.5 42 +38 +57 опасность
солнечного
удара
1012.7 1013.0
09 19.10 штиль 0 4000 м 1/0
[Ac trans]
+34.4 +16.9 35 +37 +51 опасность
солнечного
удара
1010.0 1010.0
12 19.10 штиль 0 4000 м 3/0
[Ac trans]
+33.1 +17.8 40 +37 +37 очень
душно
1010.5 1011.0 +35.8
03 20.10 штиль 0 2000 м 1/0
[Ac trans]
+24.4 +19.8 76 +30 +35 очень
душно
1016.6 1017.0 +19.8
06 20.10 штиль 0 4000 м ясно +32.6 +19.6 46 +38 +58 опасность
солнечного
удара
1014.3 1014.0
09 20.10 штиль 0 4000 м 1/0
[Ac trans]
+34.4 +14.8 31 +36 +49 душно 1011.3 1011.0
12 20.10 штиль 0 4000 м ясно +33.5 +15.9 35 +36 +36 очень
душно
1011.2 1011.0 +35.4
03 21.10 штиль 0 2000 м 8/0
[Ac trans]
+23.5 +19.0 76 +28 +31 душно 1017.1 1017.0 +19.0
06 21.10 штиль 0 4000 м 1/0
[Ac trans]
+32.2 +18.7 45 +37 +56 опасность
солнечного
удара
1014.6 1015.0
09 21.10 штиль 0 4000 м 3/0
[Ac trans]
+35.2 +16.8 34 +38 +50 очень
душно
1012.0 1012.0
12 21.10 штиль 0 4000 м 1/0
[Ac trans]
+34.0 +15.5 33 +36 +36 душно 1011.1 1011.0 +36.1
15 21.10 штиль 0 4000 м 1/0
[Ac trans]
+34.0 +15.5 33 +36 +36 душно 1011.1 1011.0 +36.1
03 22.10 штиль 0 2000 м ясно +23.5 +19.0 76 +28 +34 душно 1015.7 1016.0 +19.9
06 22.10 З 1 4000 м ясно +34.0 +17.6 38 +38 +56 опасность
солнечного
удара
1013.1 1013.0
09 22.10 З 1 4000 м 1/0
[Ac trans]
+36.2 +24.7 52 +49 +61 опасность
перегрева
1009.4 1009.0
12 22.10 штиль 0 4000 м ясно +33.0 +18.2 41 +37 +37 очень
душно
1009.8 1010.0 +36.6

 

Местоположение метеостанции Wardha (Maharashtra, Индия): широта 20.67 долгота 78.58 высота над уровнем моря 283 м.

В архиве по умолчанию представлена погода в Wardha за последнюю неделю. Архивные данные за месяц целиком и за предыдущие месяцы, начиная с января 2011 года, Вы можете получить, выбрав интересующий диапазон дат из раскрывающегося списка и нажав кнопку "Ввод!".


*Определитесь, кто Вы:
робот инопланетянин человек

Внимание! Время в таблицах - всемирное. Для получения местного времени необходимо прибавить поправку, которая в Wardha равна 5.5 ч.

Смотрите также архив погоды в соседних городах и на ближайших метеорологических станциях:

Погода в Yeotmal (Maharashtra, Индия) (54 км)
Погода в Nagpur (Maharashtra, Индия) (68 км)
Погода в Amravati (Maharashtra, Индия) (88 км)
Погода в Chandrapur (Maharashtra, Индия) (108 км)
Погода в Adilabad (Telangana, Индия) (114 км)
Погода в Bramhapuri (Maharashtra, Индия) (132 км)
Погода в Betul (Madhya Pradesh, Индия) (150 км)
Погода в Akola (Maharashtra, Индия) (161 км)
Погода в Washim (Maharashtra, Индия) (163 км)
Погода в Chhindwara (Madhya Pradesh, Индия) (165 км)

Пояснения к столбцам:

Ветер - указаны скорость ветра в м/с - средняя за 10 мин, порывы в срок и между сроками (в фигурных скобках) и направление, откуда дует ветер: С - северный, СВ - северо-восточный, В - восточный, ЮВ - юго-восточный, Ю - южный, ЮЗ - юго-западный, З - западный, СЗ - северо-западный.
Видимость - горизонтальная дальность видимости в метрах или километрах. При видимости от 1 до 10 км при отсутствии осадков обычно наблюдается дымка, при ухудшении видимости до 1 км и менее - туман. В сухую погоду видимость может ухудшаться дымом, пылью или мглою.
Явления - указаны атмосферные явления, наблюдавшиеся в срок или в последний час перед сроком; фигурными скобками обозначены явления, наблюдавшиеся между сроками (за 1-3 часа до срока); квадратными скобками обозначены град или гололедные отложения с указанием их диаметра в мм.
Облачность - указаны через наклонную черту общая и нижняя облачность в баллах и высота нижней границы облаков в метрах; квадратными скобками обозначены формы облаков: Ci - перистые, Cs - перисто-слоистые, Cc - перисто-кучевые, Ac - высококучевые, As - высокослоистые, Sc - слоисто-кучевые, Ns - слоисто-дождевые, Cu - кучевые, Cb - кучево-дождевые. Подробнее классификацию облаков см. в Атласе облаков (PDF).
T - Температура воздуха - температура, измеренная на высоте 2 м над землей.
Td - Температура точки росы - температура, при понижении до которой содержащийся в воздухе водяной пар достигнет насыщения.
f - Относительная влажность воздуха - влажноcть воздуха, измеренная на высоте 2 м над землей.
Te - Эффективная температура - температура, которую ощущает одетый по сезону человек в тени. Характеристика душности погоды. При расчете учитывается влияние влажности воздуха и скорости ветра на теплоощущения человека.
Tes - Эффективная температура на солнце - температура, которую ощущает человек, с поправкой на солнечный нагрев. Характеристика знойности погоды. Зависит от высоты солнца над горизонтом, облачности и скорости ветра. Ночью, в пасмурную погоду, а также при ветре 12 м/с и более поправка равна нулю.
P - Атмосферное давление - приведенное к уровню моря атмосферное давление.
Po - Атмосферное давление - измеренное на уровне метеостанции атмосферное давление.
Tmin - Минимальная температура - минимум температуры воздуха на высоте 2 м над землей.
Tmax - Максимальная температура - максимум температуры воздуха на высоте 2 м над землей.
R - Количество осадков - Количество выпавших осадков за период времени, мм. При наведении курсора мыши на число - период времени, за который выпало указанное количество осадков.
R24 - Количество осадков - Количество выпавших осадков за 24 часа, мм.
S - Снежный покров - Высота снежного покрова, см. При наведении курсора мыши на число - состояние снежного покрова и степень покрытия местности в баллах.